Meteo Giornale » Osservazioni meteo Gran Bretagna » Londra City AP

ore: 02:20 - Osservazioni Meteo Londra City AP
Lat. 51° 30' N Lon. 0° 30' W Alt. 5 metri s.l.m.

coperto_pioggia Europe/London

15 °C

Pioggia Debole Temporale nelle Vicinanze

Temp. 24 Ore

14 °C

24 °C

Est/Sud-Est

16.7 Km/h

Dew point 14 °C

Umidità 93 %

Visibilità  10 Km

Il sole sorge alle ore 04:50

Il sole tramonta alle ore 21:08

Data e Ora Cielo e Fenomeni T °C DP °C Um. % Pres. hPa Vis. km Vento km/h
Oggi h: 02:20 coperto_pioggia Pioggia Debole Temporale nelle Vicinanze 15 14 93 1014 10 E/SE 16.7
Oggi h: 01:50 coperto_pioggia Pioggia Debole 16 13 82 1015 8 E 24
Oggi h: 01:20 coperto_pioggia Pioggia Debole 16 13 82 1015 9 E 25.9
Oggi h: 00:50 coperto_pioggia Pioggia Debole 17 14 82 1015 10 E 24
Oggi h: 00:20 sereno Sereno 18 15 82 1014 10 E 16.7
Ieri h: 23:50 sereno Sereno 18 15 82 1015 10 E/NE 13
Ieri h: 23:20 sereno Sereno 18 15 82 1015 10 E/NE 11.1
Ieri h: 22:50 sereno Sereno 18 15 82 1015 10 N/NE 7.4
Ieri h: 22:20 sereno Sereno 18 15 82 1015 10 N/NE 9.3
Ieri h: 21:50 poco_nuvoloso Poco Nuvoloso 19 15 77 1015 10 E/NE 9.3
Ieri h: 21:20 sereno Sereno 19 16 82 1016 10 E/NE 9.3
Ieri h: 20:50 molto_nuvoloso Molto Nuvoloso 19 15 77 1016 10 E 13
Ieri h: 20:20 molto_nuvoloso Molto Nuvoloso 20 15 72 1015 10 E 14.8
Ieri h: 19:50 coperto Coperto 20 15 72 1016 10 E 16.7
Ieri h: 19:20 coperto Coperto 20 15 72 1016 10 E 13
Ieri h: 18:50 molto_nuvoloso Molto Nuvoloso 20 15 72 1016 10 E/NE 11.1
Ieri h: 18:20 molto_nuvoloso Molto Nuvoloso 19 15 77 1016 10 NE 7.4
Ieri h: 17:50 molto_nuvoloso Molto Nuvoloso 19 15 77 1016 10 E 13
Ieri h: 17:20 sereno Sereno 20 15 72 1017 10 E/SE 9.3
Ieri h: 16:50 coperto_pioggia Pioggia Debole 20 15 72 1017 6 S/SE 14.8
Ieri h: 16:20 sereno Sereno 24 10 41 1017 10 SE 7.4
Ieri h: 15:50 sereno Sereno 24 9 38 1017 10 E/SE 7.4
Ieri h: 15:20 sereno Sereno 24 10 41 1017 10 E 9.3
Ieri h: 14:50 sereno Sereno 24 9 38 1017 10 S/SE 9.3
Ieri h: 14:20 sereno Sereno 24 10 41 1018 10 N 5.5
Ieri h: 13:50 sereno Sereno 24 10 41 1018 10 N 5.5
Ieri h: 13:20 sereno Sereno 23 10 43 1018 10 N 9.3
Ieri h: 12:50 sereno Sereno 22 10 46 1018 10 N 5.5
Ieri h: 12:20 sereno Sereno 21 10 49 1018 10 N 3.7
Ieri h: 11:50 sereno Sereno 21 10 49 1018 10 SE 9.3
Ieri h: 11:20 sereno Sereno 21 11 52 1018 10 N 5.5
Ieri h: 10:50 sereno Sereno 20 11 56 1019 10 N 5.5
Ieri h: 10:20 sereno Sereno 19 11 59 1019 10 N 5.5
Ieri h: 09:50 sereno Sereno 19 11 59 1019 10 N 5.5
Ieri h: 09:20 sereno Sereno 18 12 67 1019 10 N 5.5
Ieri h: 08:50 sereno Sereno 17 12 72 1019 10 N 5.5
Ieri h: 08:20 sereno Sereno 17 12 72 1019 10 O/NO 9.3
Ieri h: 07:50 sereno Sereno 16 12 77 1018 10 O/NO 11.1
Ieri h: 07:20 sereno Sereno 16 12 77 1018 10 O 9.3
Ieri h: 06:50 sereno Sereno 15 12 82 1019 10 O/SO 11.1
Ieri h: 06:20 sereno Sereno 14 12 87 1019 10 O/SO 13
Ieri h: 05:50 sereno Sereno 14 12 87 1019 10 S/SO 11.1
Ieri h: 05:20 sereno Sereno 14 12 87 1018 10 SO 13
Ieri h: 04:50 sereno Sereno 14 12 87 1018 10 SO 13
Ieri h: 04:20 sereno Sereno 14 12 87 1018 10 SO 13
Ieri h: 03:50 sereno Sereno 14 12 87 1018 10 O/SO 11.1
Ieri h: 03:20 sereno Sereno 15 12 82 1018 10 SO 13
Ieri h: 02:50 sereno Sereno 15 12 82 1018 10 SO 14.8